Torna al catalogo

GORIZONT 33

AttivoComunicazioniGEO
NORAD 26372·PAYLOAD·🇷🇺 Russia

Lanciato Jun 6, 2000 da Baikonur Cosmodrome

Loading…

TLE

AggiornatoSource: Space-Track

Epoca: Sep 14, 2026, 00:01 UTC

1 26372U 00029A   26257.00105190  .00000084  00000-0  00000-0 0  9991
2 26372  13.9231   6.1374 0003355 237.8651 130.3128  1.00205788 96329

Traccia GORIZONT 33 in tempo reale con AllMySat

Download on the App Store